When you browse on this site, cookies collect data to enhance your experience and personalize the content and advertising you see.
Visit our Privacy Policy to learn more. By continuing to use the site, you agree to this use of cookies and data.
  • In Hungary
  • List of Countries
  • For 7 days
  • Water Temperature
  • Weather Map
  • News
  • Weather Widgets
  • user-avatar
    Login

    Hourly Weather Tabaivka

    Today, 14 November, Thursday

    Time Temperature Precipitation Wind Pressure Humidity
    00:00 +4°C° 0 mm 4 mps 756 mmHg 79%
    01:00 +3°C° 0 mm 4 mps 756 mmHg 81%
    02:00 +3°C° 0 mm 4 mps 756 mmHg 83%
    03:00 +1°C° 0 mm 4 mps 756 mmHg 90%
    04:00 +1°C° 0 mm 4 mps 756 mmHg 90%
    05:00 +1°C° 0 mm 5 mps 756 mmHg 90%
    06:00 +1°C° 0 mm 5 mps 756 mmHg 90%
    07:00 +1°C° 0 mm 6 mps 756 mmHg 87%
    08:00 +1°C° 0 mm 6 mps 756 mmHg 84%
    09:00 +2°C° 0 mm 7 mps 757 mmHg 80%
    10:00 +3°C° 0 mm 7 mps 756 mmHg 73%
    11:00 +4°C° 0 mm 7 mps 756 mmHg 66%
    12:00 +5°C° 0 mm 7 mps 756 mmHg 59%
    13:00 +6°C° 0 mm 7 mps 756 mmHg 55%
    14:00 +6°C° 0 mm 7 mps 756 mmHg 51%
    15:00 +8°C° 0 mm 7 mps 756 mmHg 47%
    16:00 +6°C° 0 mm 7 mps 755 mmHg 51%
    17:00 +5°C° 0 mm 7 mps 755 mmHg 54%
    18:00 +4°C° 0 mm 6 mps 755 mmHg 57%
    19:00 +4°C° 0 mm 7 mps 755 mmHg 58%
    20:00 +3°C° 0 mm 7 mps 756 mmHg 60%
    21:00 +3°C° 0 mm 7 mps 756 mmHg 61%
    22:00 +3°C° 0 mm 7 mps 756 mmHg 63%
    23:00 +3°C° 0 mm 7 mps 756 mmHg 64%

    Tomorrow, 15 November, Friday

    Time Temperature Precipitation Wind Pressure Humidity
    00:00 +2°C° 0 mm 7 mps 756 mmHg 66%
    01:00 +2°C° 0 mm 7 mps 756 mmHg 67%
    02:00 +2°C° 0 mm 7 mps 756 mmHg 68%
    03:00 +2°C° 0 mm 6 mps 756 mmHg 69%
    04:00 +2°C° 0 mm 7 mps 756 mmHg 69%
    05:00 +2°C° 0 mm 7 mps 756 mmHg 69%
    06:00 +2°C° 0 mm 7 mps 755 mmHg 70%
    07:00 +1°C° 0 mm 8 mps 756 mmHg 68%
    08:00 +1°C° 0 mm 8 mps 756 mmHg 66%
    09:00 +1°C° 0 mm 8 mps 756 mmHg 65%
    10:00 +4°C° 0 mm 8 mps 756 mmHg 58%
    11:00 +5°C° 0 mm 8 mps 756 mmHg 52%
    12:00 +7°C° 0 mm 8 mps 756 mmHg 46%
    13:00 +7°C° 0 mm 8 mps 756 mmHg 45%
    14:00 +7°C° 0 mm 8 mps 756 mmHg 43%
    15:00 +9°C° 0 mm 8 mps 756 mmHg 42%
    16:00 +8°C° 0 mm 7 mps 756 mmHg 47%
    17:00 +6°C° 0 mm 7 mps 756 mmHg 51%
    18:00 +5°C° 0 mm 6 mps 756 mmHg 56%
    19:00 +4°C° 0 mm 6 mps 756 mmHg 59%
    20:00 +4°C° 0 mm 6 mps 756 mmHg 63%
    21:00 +3°C° 0 mm 6 mps 757 mmHg 67%
    22:00 +3°C° 0 mm 6 mps 757 mmHg 69%
    23:00 +3°C° 0 mm 6 mps 757 mmHg 72%

    Day after tomorrow, 16 November, Saturday

    Time Temperature Precipitation Wind Pressure Humidity
    00:00 +2°C° 0 mm 6 mps 757 mmHg 74%
    01:00 +2°C° 0 mm 5 mps 757 mmHg 75%
    02:00 +2°C° 0 mm 5 mps 757 mmHg 77%
    03:00 +1°C° 0 mm 5 mps 757 mmHg 78%
    04:00 +1°C° 0 mm 4 mps 757 mmHg 79%
    05:00 +1°C° 0 mm 4 mps 757 mmHg 81%
    06:00 0°C° 0 mm 4 mps 756 mmHg 82%
    07:00 0°C° 0 mm 5 mps 757 mmHg 81%
    08:00 +1°C° 0 mm 5 mps 757 mmHg 79%
    09:00 +1°C° 0 mm 5 mps 757 mmHg 78%
    10:00 +2°C° 0 mm 5 mps 757 mmHg 72%
    11:00 +3°C° 0 mm 5 mps 757 mmHg 67%
    12:00 +6°C° 0 mm 5 mps 757 mmHg 61%
    13:00 +6°C° 0 mm 5 mps 757 mmHg 59%
    14:00 +7°C° 0 mm 5 mps 757 mmHg 57%
    15:00 +7°C° 0 mm 5 mps 757 mmHg 55%
    16:00 +6°C° 0 mm 5 mps 757 mmHg 59%
    17:00 +5°C° 0 mm 4 mps 757 mmHg 63%
    18:00 +4°C° 0 mm 4 mps 757 mmHg 67%
    19:00 +4°C° 0 mm 4 mps 757 mmHg 70%
    20:00 +4°C° 0 mm 4 mps 757 mmHg 73%
    21:00 +4°C° 0 mm 4 mps 757 mmHg 75%
    22:00 +3°C° 0 mm 4 mps 757 mmHg 78%
    23:00 +3°C° 0 mm 4 mps 757 mmHg 80%

    17 November, Sunday

    Time Temperature Precipitation Wind Pressure Humidity
    00:00 +3°C° 0 mm 4 mps 757 mmHg 82%
    01:00 +1°C° 0 mm 4 mps 757 mmHg 84%
    02:00 +1°C° 0 mm 4 mps 757 mmHg 86%
    03:00 +1°C° 0 mm 3 mps 757 mmHg 88%
    04:00 +1°C° 0 mm 3 mps 757 mmHg 90%
    05:00 +1°C° 0 mm 3 mps 757 mmHg 92%
    06:00 +1°C° 0 mm 3 mps 757 mmHg 93%
    07:00 0°C° 0 mm 4 mps 758 mmHg 93%
    08:00 0°C° 0 mm 4 mps 758 mmHg 92%
    09:00 +1°C° 0 mm 5 mps 758 mmHg 92%
    10:00 +2°C° 0 mm 5 mps 758 mmHg 86%
    11:00 +3°C° 0 mm 5 mps 758 mmHg 80%
    12:00 +5°C° 0 mm 4 mps 758 mmHg 74%
    13:00 +6°C° 0 mm 4 mps 757 mmHg 70%
    14:00 +7°C° 0 mm 4 mps 757 mmHg 66%
    15:00 +7°C° 0 mm 4 mps 757 mmHg 63%
    16:00 +6°C° 0 mm 4 mps 757 mmHg 67%
    17:00 +5°C° 0 mm 4 mps 757 mmHg 72%
    18:00 +4°C° 0 mm 3 mps 756 mmHg 77%
    19:00 +4°C° 0 mm 3 mps 757 mmHg 78%
    20:00 +4°C° 0 mm 3 mps 757 mmHg 79%
    21:00 +3°C° 0 mm 3 mps 757 mmHg 81%
    22:00 +3°C° 0 mm 3 mps 757 mmHg 81%
    23:00 +3°C° 0 mm 3 mps 756 mmHg 81%

    18 November, Monday

    Time Temperature Precipitation Wind Pressure Humidity
    00:00 +2°C° 0 mm 3 mps 756 mmHg 82%
    01:00 +2°C° 0 mm 3 mps 756 mmHg 83%
    02:00 +2°C° 0 mm 3 mps 756 mmHg 84%
    03:00 +1°C° 0 mm 3 mps 756 mmHg 85%
    04:00 +1°C° 0 mm 3 mps 756 mmHg 86%
    05:00 +1°C° 0 mm 3 mps 756 mmHg 87%
    06:00 +1°C° 0 mm 3 mps 755 mmHg 88%
    07:00 +1°C° 0 mm 3 mps 755 mmHg 87%
    08:00 +1°C° 0 mm 3 mps 756 mmHg 85%
    09:00 +1°C° 0 mm 3 mps 756 mmHg 83%
    10:00 +3°C° 0 mm 3 mps 755 mmHg 77%
    11:00 +5°C° 0 mm 4 mps 755 mmHg 70%
    12:00 +6°C° 0 mm 4 mps 755 mmHg 63%
    13:00 +7°C° 0 mm 4 mps 755 mmHg 60%
    14:00 +7°C° 0 mm 4 mps 755 mmHg 58%
    15:00 +8°C° 0 mm 4 mps 754 mmHg 55%
    16:00 +8°C° 0 mm 3 mps 754 mmHg 61%
    17:00 +5°C° 0 mm 3 mps 754 mmHg 67%
    18:00 +4°C° 0 mm 3 mps 754 mmHg 73%
    19:00 +4°C° 0 mm 3 mps 754 mmHg 75%
    20:00 +3°C° 0 mm 3 mps 754 mmHg 77%
    21:00 +3°C° 0 mm 3 mps 754 mmHg 80%
    22:00 +2°C° 0 mm 3 mps 754 mmHg 82%
    23:00 +3°C° 0 mm 2 mps 754 mmHg 84%

    19 November, Tuesday

    Time Temperature Precipitation Wind Pressure Humidity
    00:00 +3°C° 0 mm 2 mps 754 mmHg 87%
    01:00 +2°C° 0 mm 2 mps 754 mmHg 87%
    02:00 +2°C° 0 mm 2 mps 754 mmHg 88%
    03:00 +2°C° 0 mm 2 mps 754 mmHg 89%
    04:00 +2°C° 0 mm 2 mps 754 mmHg 89%
    05:00 +2°C° 0 mm 2 mps 754 mmHg 90%
    06:00 +1°C° 0 mm 2 mps 754 mmHg 90%
    07:00 +2°C° 0 mm 2 mps 754 mmHg 89%
    08:00 +2°C° 0 mm 2 mps 754 mmHg 89%
    09:00 +2°C° 0 mm 2 mps 754 mmHg 88%
    10:00 +4°C° 0 mm 2 mps 754 mmHg 81%
    11:00 +5°C° 0 mm 2 mps 754 mmHg 74%
    12:00 +7°C° 0 mm 2 mps 754 mmHg 67%
    13:00 +8°C° 0 mm 2 mps 754 mmHg 66%
    14:00 +8°C° 0 mm 2 mps 753 mmHg 64%
    15:00 +9°C° 0 mm 2 mps 753 mmHg 62%
    16:00 +7°C° 0 mm 2 mps 753 mmHg 68%
    17:00 +6°C° 0 mm 2 mps 753 mmHg 74%
    18:00 +5°C° 0 mm 2 mps 753 mmHg 80%
    19:00 +4°C° 0 mm 2 mps 753 mmHg 82%
    20:00 +4°C° 0 mm 2 mps 753 mmHg 84%
    21:00 +3°C° 0 mm 3 mps 754 mmHg 86%
    22:00 +2°C° 0 mm 3 mps 754 mmHg 87%
    23:00 +2°C° 0 mm 3 mps 754 mmHg 87%
    Show more